Regional Weather Roundup
Issued by NWS

Home | Current Version | Previous Version | Graphics & Text | Print | Product List | Glossary On
Versions: 1 2 3 4 5 6 7 8 9 10 11 12 13 14 15 16 17 18 19 20 21 22 23 24 25 26 27 28 29 30 31 32 33 34 35 36 37 38 39 40 41 42 43 44 45 46 47 48 49 50
284
ASUS43 KLSX 130807
RWRMO

WEATHER SUMMARY FOR MISSOURI
NATIONAL WEATHER SERVICE SPRINGFIELD MO
200 AM CST SAT FEB 13 2016

NOTE: "FAIR" INDICATES FEW OR NO CLOUDS BELOW 12,000 FEET WITH NO
       SIGNIFICANT WEATHER AND/OR OBSTRUCTIONS TO VISIBILITY.
       CURRENT SKY AND/OR WEATHER CONDITIONS ARE NOT AVAILABLE FOR
       CHILLICOTHE AND FARMINGTON.

MOZ001>031-035>038-043-044-053-054-130900-
...NORTHERN AND WESTERN MISSOURI...

CITY           SKY/WX    TMP DP  RH WIND       PRES   REMARKS
KANSAS CTY INT CLOUDY    17   2  51 NE8       30.61R WCI   7
KANSAS C DTWN  MOCLDY    19   3  49 NE8       30.63R WCI   9
LEE`S SUMMIT   CLOUDY    17   3  54 NE9       30.61R WCI   6
ST JOSEPH      CLOUDY    16   4  59 N8        30.64S WCI   5
CHILLICOTHE      N/A     14   3  61 N6        30.65S WCI   5
KIRKSVILLE     CLOUDY     8  -1  66 N10       30.61S WCI  -6

$$
MOZ066>068-077>081-088>096-101>105-130900-
...SOUTHWEST MISSOURI...

CITY           SKY/WX    TMP DP  RH WIND       PRES   REMARKS
SPRINGFIELD    CLOUDY    24   6  46 N9        30.51R WCI  14
JOPLIN         CLOUDY    27  10  49 N8        30.55R WCI  19

$$
MOZ032>034-039>042-045>050-055>058-069>072-130900-
...CENTRAL MISSOURI...

CITY           SKY/WX    TMP DP  RH WIND       PRES   REMARKS
COLUMBIA       PTCLDY    15   4  61 N15       30.59R WCI   0
JEFFERSON CITY CLOUDY    18   6  59 VRB3      30.62R
ROLLA          PTCLDY    16   5  62 N13       30.52R WCI   2
SEDALIA        CLOUDY    18   3  52 N10       30.62R WCI   6
WHITEMAN AFB   CLOUDY    17   3  53 N10       30.60R WCI   5
WARRENSBURG    CLOUDY    19   5  53 N8        30.61S WCI   9
OSAGE BEACH    MOCLDY    18   0  45 N3        30.57S

$$
MOZ051-052-059>065-130900-
...EAST CENTRAL MISSOURI...

CITY           SKY/WX    TMP DP  RH WIND       PRES   REMARKS
ST LOUIS INTL  PTCLDY    16   3  56 N15       30.58R WCI   1
SPIRIT OF STL  CLOUDY    15   3  59 N12G17    30.59R WCI   2
ST CHARLES     PTCLDY    14   5  67 N12       30.60R WCI   0

$$
MOZ072>076-082>087-097>100-106>115-130900-
...SOUTH CENTRAL AND SOUTHEAST MISSOURI...

CITY           SKY/WX    TMP DP  RH WIND       PRES   REMARKS
CAPE GIRARDEAU PTCLDY    22   6  50 N18       30.54R WCI   7
FARMINGTON     CLEAR     17   4  56 NW8       30.52R WCI   7
POPLAR BLUFF   PTCLDY    26  10  50 N14       30.51R WCI  14
WEST PLAINS    PTCLDY    24   8  50 N7        30.49S WCI  16

$$



USA.gov is the U.S. government's official web portal to all federal, state and local government web resources and services.